Weather History for Cleveland, OH

Change the Weather History Date:

Friday, November 15, 2013

  Actual Average Record
Temperature  
Mean Temperature 48 °F 44 °F  
Max Temperature 53 °F 51 °F 72 °F (1927)
Min Temperature 42 °F 37 °F 14 °F (1996)
Degree Days  
Heating Degree Days 17 21  
Month to date heating degree days 314 275  
Since 1 July heating degree days 725 735  
Cooling Degree Days 0 0  
Month to date cooling degree days 0 0  
Year to date cooling degree days 889 816  
Moisture  
Dew Point 23 °F    
Average Humidity 41    
Maximum Humidity 49    
Minimum Humidity 32    
Precipitation  
Precipitation 0.00 in 0.13 in 1.44 in (2008)
Month to date precipitation 1.72 1.79  
Year to date precipitation 36.59 34.21  
Snow  
Snow 0.00 in 0.10 in - ()
Month to date snowfall 3.1 1.4  
Since 1 July snowfall 3.1 1.6  
Since 1 September snowfall 3.1 1.6  
Snow Depth 0.00 in    
Sea Level Pressure  
Sea Level Pressure 30.13 in    
Wind  
Wind Speed 10 mph (SSW)    
Max Wind Speed 20 mph    
Max Gust Speed 24 mph    
Visibility 10 miles    
Events      
T = Trace of Precipitation, MM = Missing Value Source: NWS Daily Summary

Daily Weather History Graph

Daily Weather History Graph

Search for Another Location

Airport:

Trip Planner

Search our weather history database for the weather conditions in past years. The results will help you decide how hot, cold, wet, or windy it might be!

Date:

Astronomy

Nov. 15, 2013 Rise Set
Actual Time 7:16 AM EST 5:07 PM EST
Civil Twilight 6:46 AM EST 5:37 PM EST
Nautical Twilight 6:12 AM EST 6:10 PM EST
Astronomical Twilight 5:40 AM EST 6:43 PM EST
Moon 4:04 PM EST (11/15) 5:10 AM EST (11/15)
Length of Visible Light 10h 50m
Length of Day
9h 51m
Waxing Gibbous, 96% of the Moon is Illuminated
Nov 15
Waxing Gibbous
Nov 17
Full
Nov 25
Last Quarter
Dec 2
New
Dec 9
First Quarter

Hourly Weather History & Observations

Time (EST) Temp. Windchill Dew Point Humidity Pressure Visibility Wind Dir Wind Speed Gust Speed Precip Events Conditions
12:51 AM 44.1 °F 38.6 °F 19.0 °F 37% 30.13 in 10.0 mi South 10.4 mph - N/A   Mostly Cloudy
1:51 AM 43.0 °F 38.2 °F 19.0 °F 38% 30.13 in 10.0 mi SSW 8.1 mph - N/A   Mostly Cloudy
2:51 AM 44.1 °F 39.0 °F 19.0 °F 37% 30.14 in 10.0 mi SSW 9.2 mph - N/A   Mostly Cloudy
3:51 AM 44.1 °F 39.5 °F 19.0 °F 37% 30.13 in 10.0 mi SSW 8.1 mph - N/A   Mostly Cloudy
4:51 AM 44.1 °F 38.1 °F 19.9 °F 38% 30.14 in 10.0 mi SSW 11.5 mph - N/A   Mostly Cloudy
5:51 AM 44.1 °F 38.1 °F 19.9 °F 38% 30.14 in 10.0 mi SSW 11.5 mph - N/A   Mostly Cloudy
6:51 AM 44.1 °F 38.6 °F 19.9 °F 38% 30.14 in 10.0 mi South 10.4 mph - N/A   Mostly Cloudy
7:51 AM 42.1 °F 36.6 °F 21.0 °F 43% 30.16 in 10.0 mi South 9.2 mph - N/A   Mostly Cloudy
8:51 AM 44.1 °F 38.1 °F 21.9 °F 42% 30.15 in 10.0 mi SSW 11.5 mph - N/A   Mostly Cloudy
9:51 AM 46.9 °F - 23.0 °F 39% 30.16 in 10.0 mi SSW 15.0 mph 20.7 mph N/A   Mostly Cloudy
10:51 AM 48.9 °F - 23.0 °F 36% 30.15 in 10.0 mi SSW 13.8 mph 21.9 mph N/A   Mostly Cloudy
11:51 AM 52.0 °F - 24.1 °F 34% 30.13 in 10.0 mi SSW 12.7 mph 23.0 mph N/A   Mostly Cloudy
12:51 PM 52.0 °F - 24.1 °F 34% 30.12 in 10.0 mi SSW 13.8 mph - N/A   Mostly Cloudy
1:51 PM 52.0 °F - 23.0 °F 32% 30.10 in 10.0 mi SSW 15.0 mph - N/A   Overcast
2:51 PM 52.0 °F - 23.0 °F 32% 30.09 in 10.0 mi SSW 12.7 mph 20.7 mph N/A   Overcast
3:51 PM 51.1 °F - 24.1 °F 35% 30.10 in 10.0 mi SW 9.2 mph - N/A   Overcast
4:51 PM 50.0 °F - 23.0 °F 35% 30.11 in 10.0 mi South 6.9 mph - N/A   Overcast
5:51 PM 50.0 °F - 25.0 °F 38% 30.10 in 10.0 mi South 9.2 mph - N/A   Overcast
6:51 PM 48.9 °F - 25.0 °F 39% 30.11 in 10.0 mi South 9.2 mph - N/A   Clear
7:51 PM 48.9 °F - 27.0 °F 43% 30.11 in 10.0 mi South 8.1 mph - N/A   Clear
8:51 PM 48.9 °F - 28.0 °F 44% 30.12 in 10.0 mi South 9.2 mph - N/A   Clear
9:51 PM 48.0 °F - 28.0 °F 46% 30.14 in 10.0 mi South 8.1 mph - N/A   Partly Cloudy
10:51 PM 46.9 °F - 28.9 °F 50% 30.15 in 10.0 mi South 9.2 mph - N/A   Scattered Clouds
11:51 PM 46.0 °F 42.5 °F 28.9 °F 51% 30.15 in 10.0 mi South 6.9 mph - N/A   Clear